User: anonymous   Login
Location: Unspecified
(0.0000°N, 0.0000°E)
Time: 15:38:56
(UTC+00:00)
Language:

LilacSat-2 - Orbit

View from above orbital plane
View from above orbital plane
View from above satellite
View from above satellite

Ground track
Ground track

The orbit is defined by the following mean orbital elements,

1 40908U          26037.28082541 +.00000000 +00000-0 +57165-3 0 00009
2 40908  97.4854  69.4363 0007953  21.9231 338.2357 15.46836990    05
Epoch (UTC): 06 February 2026 06:44:23
Eccentricity: 0.0007953
inclination: 97.4854°
perigee height: 421 km
apogee height: 431 km
right ascension of ascending node: 69.4363°
argument of perigee: 21.9231°
revolutions per day: 15.46836990
mean anomaly at epoch: 338.2357°

The dashed part of the orbit path shows where the satellite is in the earth's shadow,  

DLR